Location: Bussy-Saint-Georges
(48.8410°N, 2.7017°E)
Time: 22:41:55
(UTC+00:00)

OBJECT-B - Pass Details

Date: 18 October 2021
Orbit: 406 x 416 km, 96.9° (Epoch: 24 October)

Event Time Altitude Azimuth Distance (km) Brightness Sun altitude
Exits shadow 18:38:29 12° 17° (NNE) 1,396 3.3 -18.0°
Drops below altitude 10° 18:38:43 10° 14° (NNE) 1,480 3.4 -18.0°
Sets 18:40:59 0° 359° (N) 2,359 4.6 -18.4°
